Regional Weather Roundup
Issued by NWS

Home | Current Version | Previous Version | Text Only | Print | Product List | Glossary Off
Versions: 1 2 3 4 5 6 7 8 9 10 11 12 13 14 15 16 17 18 19 20 21 22 23 24 25 26 27 28 29 30 31 32 33 34 35 36 37 38 39 40 41 42 43 44 45 46 47 48 49 50

000
ASUS43 KBIS 220902
RWRND

NORTH DAKOTA REGIONAL WEATHER ROUNDUP
NATIONAL WEATHER SERVICE BISMARCK ND
300 AM CST WED NOV 22 2017

NOTE: "FAIR" INDICATES FEW OR NO CLOUDS BELOW 12,000 FEET WITH NO
SIGNIFICANT WEATHER AND/OR OBSTRUCTIONS TO VISIBILITY.


NDZ001>003-009>011-017-221000-
NORTHWEST NORTH DAKOTA

CITY           SKY/WX    TMP DP  RH WIND       PRES   REMARKS
WILLISTON      CLOUDY    19   8  62 SE5       30.00F WCI  12
MINOT          CLOUDY    10   6  84 S6        30.08F WCI   0
MINOT AFB      CLOUDY     8   4  82 SE7       30.07F WCI  -3
$$

NDZ018>021-031>035-040>046-221000-
SOUTHWEST NORTH DAKOTA

CITY           SKY/WX    TMP DP  RH WIND       PRES   REMARKS
BISMARCK       CLOUDY    13   9  84 E5        30.16F WCI   5
DICKINSON      CLOUDY    23  12  62 S17       29.99F WCI   9
GARRISON         N/A     17  11  77 S8        30.08F WCI   7
HETTINGER ARPT CLOUDY    19   9  65 S7        30.07F WCI  10
$$

NDZ004>008-012>016-024-026-027-054-221000-
NORTHEAST NORTH DAKOTA

CITY           SKY/WX    TMP DP  RH WIND       PRES   REMARKS
GRAND FORKS    CLOUDY     9   5  84 SW7       30.26F WCI  -2
GRND FRKS AFB  CLEAR      7   3  82 SW7       30.25F WCI  -4
DEVILS LAKE    CLOUDY    10   5  80 SW8       30.19  WCI  -2
$$

NDZ022-023-025-028>030-036>039-047>053-221000-
SOUTHEAST NORTH DAKOTA

CITY           SKY/WX    TMP DP  RH WIND       PRES   REMARKS
FARGO          CLOUDY     8   4  83 S8        30.29F WCI  -4
JAMESTOWN      CLOUDY     3   0  87 S6        30.20F WCI  -8
$$





USA.gov is the U.S. government's official web portal to all federal, state and local government web resources and services.